| time (UTC) | temp F | wind direction | speed knots | gust knots | rain 1hr in | rain 24hr in | rain mn in | humidity % | barometer mb |
| 20260508054600 | 48 | 171 | 0.9 | 1.7 | 0.00 | 0.00 | 0.00 | 42 | 1009.7 |
| 20260508053104 | 50 | 134 | 0.9 | 2.6 | 0.00 | 0.00 | 0.00 | 37 | 1009.8 |
| 20260508051600 | 50 | 129 | 1.7 | 2.6 | 0.00 | 0.00 | 0.00 | 36 | 1009.9 |
| 20260508050057 | 50 | 131 | 1.7 | 2.6 | 0.00 | 0.00 | 0.00 | 35 | 1009.9 |
| 20260508044606 | 51 | 117 | 0.0 | 0.0 | 0.00 | 0.00 | 0.00 | 35 | 1010.0 |
| 20260508041537 | 50 | 127 | 0.0 | 0.0 | 0.00 | 0.00 | 0.00 | 36 | 1010.0 |
| 20260508040037 | 50 | 127 | 0.0 | 0.0 | 0.00 | 0.00 | 0.00 | 35 | 1010.1 |
| 20260508034519 | 50 | 128 | 0.0 | 0.0 | 0.00 | 0.00 | 0.00 | 36 | 1010.0 |
| 20260508033021 | 49 | 133 | 0.0 | 0.9 | 0.00 | 0.00 | 0.00 | 38 | 1010.1 |
| 20260508031505 | 51 | 131 | 0.0 | 1.7 | 0.00 | 0.00 | 0.00 | 35 | 1009.9 |
| 20260508030002 | 52 | 326 | 0.0 | 0.9 | 0.00 | 0.00 | 0.00 | 33 | 1009.9 |
| 20260508024601 | 52 | 326 | 0.0 | 0.0 | 0.00 | 0.00 | 0.00 | 33 | 1009.8 |
| 20260508023057 | 53 | 326 | 0.0 | 0.0 | 0.00 | 0.00 | 0.00 | 31 | 1009.7 |
| 20260508021558 | 54 | 326 | 0.0 | 0.0 | 0.00 | 0.00 | 0.00 | 30 | 1009.6 |
| 20260508020056 | 55 | 326 | 0.0 | 0.0 | 0.00 | 0.00 | 0.00 | 30 | 1009.4 |
| 20260508014556 | 56 | 345 | 0.9 | 2.6 | 0.00 | 0.00 | 0.00 | 29 | 1009.2 |
| 20260508013056 | 57 | 322 | 1.7 | 2.6 | 0.00 | 0.00 | 0.00 | 29 | 1009.1 |
| 20260508011543 | 58 | 329 | 1.7 | 3.5 | 0.00 | 0.00 | 0.00 | 28 | 1009.0 |
| 20260508010039 | 59 | 325 | 0.0 | 3.5 | 0.00 | 0.00 | 0.00 | 27 | 1008.8 |
| 20260508004525 | 61 | 321 | 0.9 | 4.3 | 0.00 | 0.00 | 0.00 | 27 | 1008.8 |
| 20260508003019 | 62 | 290 | 0.9 | 7.0 | 0.00 | 0.00 | 0.00 | 26 | 1008.8 |
| 20260508001501 | 63 | 329 | 2.6 | 8.7 | 0.00 | 0.00 | 0.00 | 24 | 1008.9 |
| 20260508000100 | 63 | 315 | 3.5 | 8.7 | 0.00 | 0.00 | 0.00 | 24 | 1008.9 |
| 20260508000006 | 63 | 336 | 2.6 | 7.8 | 0.00 | 0.00 | 0.00 | 24 | 1008.9 |
| 20260507234549 | 64 | 269 | 2.6 | 7.8 | 0.00 | 0.00 | 0.00 | 24 | 1008.9 |
| 20260507233042 | 64 | 294 | 2.6 | 7.8 | 0.00 | 0.00 | 0.00 | 24 | 1009.1 |
| 20260507231533 | 64 | 300 | 2.6 | 8.7 | 0.00 | 0.00 | 0.00 | 24 | 1009.1 |
| 20260507230020 | 64 | 292 | 3.5 | 6.1 | 0.00 | 0.00 | 0.00 | 23 | 1009.1 |
| 20260507224603 | 62 | 275 | 3.5 | 9.6 | 0.00 | 0.00 | 0.00 | 24 | 1009.3 |
| 20260507223110 | 63 | 282 | 3.5 | 10.4 | 0.00 | 0.00 | 0.00 | 24 | 1009.4 |
| 20260507221541 | 63 | 291 | 3.5 | 9.6 | 0.00 | 0.00 | 0.00 | 24 | 1009.5 |
| 20260507220038 | 63 | 320 | 2.6 | 8.7 | 0.00 | 0.00 | 0.00 | 24 | 1009.6 |
| 20260507214520 | 63 | 330 | 4.3 | 13.0 | 0.00 | 0.00 | 0.00 | 24 | 1009.7 |
| 20260507213024 | 62 | 318 | 4.3 | 9.6 | 0.00 | 0.00 | 0.00 | 25 | 1009.7 |
| 20260507211559 | 62 | 257 | 3.5 | 9.6 | 0.00 | 0.00 | 0.00 | 25 | 1009.8 |
| 20260507210057 | 62 | 322 | 1.7 | 11.3 | 0.00 | 0.00 | 0.00 | 25 | 1009.9 |
| 20260507204536 | 60 | 291 | 3.5 | 12.2 | 0.00 | 0.00 | 0.00 | 26 | 1010.1 |
| 20260507203040 | 61 | 264 | 4.3 | 12.2 | 0.00 | 0.00 | 0.00 | 26 | 1010.2 |
| 20260507201516 | 60 | 326 | 1.7 | 7.0 | 0.00 | 0.00 | 0.00 | 28 | 1010.4 |
| 20260507200013 | 60 | 314 | 3.5 | 12.2 | 0.00 | 0.00 | 0.00 | 26 | 1010.5 |
| 20260507194552 | 59 | 328 | 4.3 | 9.6 | 0.00 | 0.00 | 0.00 | 28 | 1010.7 |
| 20260507193058 | 59 | 287 | 9.6 | 13.9 | 0.00 | 0.00 | 0.00 | 27 | 1010.7 |
| 20260507191533 | 59 | 326 | 5.2 | 11.3 | 0.00 | 0.00 | 0.00 | 28 | 1010.8 |
| 20260507190033 | 59 | 266 | 2.6 | 7.0 | 0.00 | 0.00 | 0.00 | 31 | 1010.8 |
| 20260507184513 | 58 | 344 | 3.5 | 10.4 | 0.00 | 0.00 | 0.00 | 30 | 1010.9 |
| 20260507183028 | 58 | 278 | 1.7 | 12.2 | 0.00 | 0.00 | 0.00 | 30 | 1010.9 |
| 20260507181557 | 57 | 328 | 1.7 | 9.6 | 0.00 | 0.00 | 0.00 | 30 | 1011.0 |
| 20260507180053 | 57 | 330 | 1.7 | 7.8 | 0.00 | 0.00 | 0.00 | 32 | 1011.1 |
| 20260507174604 | 56 | 326 | 5.2 | 10.4 | 0.00 | 0.00 | 0.00 | 32 | 1011.2 |
| 20260507173057 | 57 | 300 | 1.7 | 6.1 | 0.00 | 0.00 | 0.00 | 32 | 1011.6 |
| 20260507171605 | 55 | 330 | 3.5 | 7.8 | 0.00 | 0.00 | 0.00 | 34 | 1011.8 |
| 20260507170044 | 55 | 11 | 0.9 | 7.0 | 0.00 | 0.00 | 0.00 | 35 | 1011.8 |
| 20260507164559 | 55 | 86 | 0.9 | 9.6 | 0.00 | 0.00 | 0.00 | 38 | 1011.8 |
| 20260507163040 | 54 | 105 | 1.7 | 8.7 | 0.00 | 0.00 | 0.00 | 37 | 1012.0 |
| 20260507161533 | 53 | 33 | 0.9 | 8.7 | 0.00 | 0.00 | 0.00 | 43 | 1012.0 |
| 20260507160020 | 53 | 210 | 1.7 | 7.8 | 0.00 | 0.00 | 0.00 | 41 | 1012.0 |
| 20260507154559 | 53 | 94 | 2.6 | 7.0 | 0.00 | 0.00 | 0.00 | 44 | 1012.0 |
| 20260507153059 | 52 | 60 | 0.9 | 5.2 | 0.00 | 0.00 | 0.00 | 43 | 1012.0 |
| 20260507151543 | 52 | 34 | 1.7 | 4.3 | 0.00 | 0.00 | 0.00 | 43 | 1012.1 |
| 20260507150040 | 52 | 328 | 1.7 | 5.2 | 0.00 | 0.00 | 0.00 | 43 | 1012.2 |
| 20260507144522 | 53 | 29 | 1.7 | 7.0 | 0.00 | 0.00 | 0.00 | 43 | 1012.2 |
| 20260507143020 | 51 | 63 | 1.7 | 6.1 | 0.00 | 0.00 | 0.00 | 44 | 1012.1 |
| 20260507141504 | 50 | 65 | 2.6 | 9.6 | 0.00 | 0.00 | 0.00 | 46 | 1012.3 |
| 20260507140100 | 50 | 60 | 3.5 | 8.7 | 0.00 | 0.00 | 0.00 | 46 | 1012.4 |
| 20260507134551 | 49 | 58 | 5.2 | 10.4 | 0.00 | 0.00 | 0.00 | 48 | 1012.5 |
| 20260507133040 | 48 | 34 | 5.2 | 8.7 | 0.00 | 0.00 | 0.00 | 48 | 1012.6 |
| 20260507131527 | 47 | 71 | 6.1 | 8.7 | 0.00 | 0.00 | 0.00 | 49 | 1012.6 |
| 20260507130020 | 46 | 70 | 6.1 | 8.7 | 0.00 | 0.00 | 0.00 | 51 | 1012.8 |
| 20260507124601 | 44 | 67 | 2.6 | 5.2 | 0.00 | 0.00 | 0.00 | 57 | 1012.9 |
| 20260507123108 | 0 | 0.0 | 0.0 | 0.00 | 0.00 | 0.00 | 1012.9 | ||
| 20260507121540 | 0 | 0.0 | 0.0 | 0.00 | 0.00 | 0.00 | 1013.0 | ||
| 20260507120034 | 0 | 0.0 | 0.0 | 0.00 | 0.00 | 0.00 | 1013.2 | ||
| 20260507114521 | 0 | 0.0 | 0.0 | 0.00 | 0.00 | 0.00 | 1013.5 | ||
| 20260507113007 | 0 | 0.0 | 0.0 | 0.00 | 0.00 | 0.00 | 1013.3 | ||
| 20260507111546 | 36 | 51 | 0.9 | 1.7 | 0.00 | 0.00 | 0.00 | 73 | 1012.7 |
| 20260507110100 | 35 | 54 | 1.7 | 4.3 | 0.00 | 0.00 | 0.00 | 70 | 1012.6 |
| 20260507104527 | 36 | 58 | 3.5 | 6.1 | 0.00 | 0.00 | 0.00 | 69 | 1012.7 |
| 20260507103029 | 35 | 55 | 0.9 | 3.5 | 0.00 | 0.00 | 0.00 | 70 | 1012.9 |
| 20260507101516 | 36 | 72 | 0.9 | 2.6 | 0.00 | 0.00 | 0.00 | 69 | 1012.9 |
| 20260507100005 | 35 | 53 | 0.0 | 1.7 | 0.00 | 0.00 | 0.00 | 71 | 1013.0 |
| 20260507094621 | 34 | 25 | 0.9 | 2.6 | 0.00 | 0.00 | 0.00 | 71 | 1013.2 |
| 20260507093056 | 36 | 348 | 1.7 | 3.5 | 0.00 | 0.00 | 0.00 | 68 | 1013.2 |
| 20260507091615 | 39 | 90 | 3.5 | 6.1 | 0.00 | 0.00 | 0.00 | 63 | 1013.1 |
| 20260507090055 | 38 | 142 | 4.3 | 6.1 | 0.00 | 0.00 | 0.00 | 66 | 1013.2 |
| 20260507084550 | 37 | 128 | 2.6 | 4.3 | 0.00 | 0.00 | 0.00 | 69 | 1013.2 |
| 20260507083044 | 37 | 130 | 1.7 | 4.3 | 0.00 | 0.00 | 0.00 | 70 | 1013.4 |
| 20260507081543 | 36 | 150 | 0.9 | 5.2 | 0.00 | 0.00 | 0.00 | 68 | 1013.4 |
| 20260507080038 | 36 | 120 | 3.5 | 5.2 | 0.00 | 0.00 | 0.00 | 67 | 1013.7 |
| 20260507074543 | 37 | 124 | 2.6 | 5.2 | 0.00 | 0.00 | 0.00 | 65 | 1013.9 |
| 20260507073014 | 38 | 110 | 0.9 | 1.7 | 0.00 | 0.00 | 0.00 | 62 | 1014.5 |
| 20260507071513 | 37 | 51 | 2.6 | 3.5 | 0.00 | 0.00 | 0.00 | 62 | 1014.6 |
| 20260507064551 | 37 | 72 | 0.0 | 0.9 | 0.00 | 0.00 | 0.00 | 63 | 1014.7 |
| 20260507063035 | 37 | 72 | 0.9 | 1.7 | 0.00 | 0.00 | 0.00 | 60 | 1014.7 |
| 20260507061529 | 38 | 79 | 0.9 | 2.6 | 0.00 | 0.00 | 0.00 | 60 | 1014.6 |
| 20260507060011 | 38 | 110 | 0.0 | 1.7 | 0.00 | 0.00 | 0.00 | 61 | 1014.7 |